Location: Writing-on-Stone Provincial Park
(49.0825°N, 111.6163°W)
Time: 05:16:23
(UTC-07:00)

Amateur Radio Satellites - All Passes

Search period start: 08 February 2016 04:46
Search period end: 09 February 2016 04:46
Location: Writing-on-Stone Provincial Park, 49.0825°N, 111.6163°W

Satellite Date Start Highest point End Downlink Frequencies (MHz)
Time Altitude Azimuth
JAS-2 08 Feb 04:51:12 04:53:23 12° 315° (NW) 04:55:28 435.910
STARS 08 Feb 04:51:21 04:53:35 14° 271° (W) 04:55:49 437.465
STRAND 1 08 Feb 05:06:30 05:09:50 18° 56° (NE) 05:13:11 437.568
Cosmos 2504 08 Feb 05:06:55 05:15:11 54° 89° (E) 05:23:45 435.465 / 435.565
CUBESAT XI-V 08 Feb 05:13:26 05:18:09 90° 212° (SSW) 05:22:55 437.345
Cosmos 2491 08 Feb 05:15:08 05:20:06 17° 288° (WNW) 05:25:03 435.465 / 435.565
CUTE-I 08 Feb 05:15:49 05:17:02 11° 84° (E) 05:18:15 437.470
Cubesat XI-IV 08 Feb 05:27:33 05:30:21 14° 86° (E) 05:33:08 437.490
ITAMSAT 1 08 Feb 05:31:51 05:33:57 12° 309° (NW) 05:36:02 435.822/435.867
M-CUBED/EXP-1 PRIME 08 Feb 05:37:15 05:40:21 37° 296° (WNW) 05:43:32 437.505
LilacSat-2 08 Feb 05:39:40 05:40:42 11° 88° (E) 05:41:42 437.200
CUSAT 1 08 Feb 05:46:33 05:47:39 10° 319° (NW) 05:48:45 437.405
AUBIESAT-1 08 Feb 05:48:54 05:51:59 34° 296° (WNW) 05:55:09 437.475
PHONESAT 2.4 08 Feb 05:49:59 05:51:50 14° 194° (SSW) 05:53:41 2401.200-2431.200
DANDE 08 Feb 05:59:44 06:03:36 14° 317° (NW) 06:07:30 436.750
AO-7 08 Feb 06:06:39 06:14:19 42° 304° (NW) 06:21:56 29.400- 29.500
PRISM 08 Feb 06:07:05 06:09:43 17° 59° (ENE) 06:12:23 437.425
SO-50 08 Feb 06:10:03 06:14:56 67° 125° (SE) 06:19:51 436.795
YUBILEINY 08 Feb 06:10:59 06:17:53 25° 303° (WNW) 06:24:52 435.215
HORYU 2 08 Feb 06:14:48 06:18:27 25° 297° (WNW) 06:22:05 437.375
GOMX 1 08 Feb 06:22:32 06:23:21 10° 83° (E) 06:24:09 467.674
BRITE-PL 08 Feb 06:42:01 06:46:28 33° 94° (E) 06:50:36 437.365/2234.400
STRAND 1 08 Feb 06:43:15 06:48:22 84° 255° (WSW) 06:53:33 437.568
CUTE-I 08 Feb 06:52:41 06:58:05 70° 103° (ESE) 07:03:27 437.470
CUBESAT XI-V 08 Feb 06:54:20 06:56:15 12° 274° (W) 06:58:10 437.345
Cosmos 2504 08 Feb 07:00:41 07:08:50 44° 292° (WNW) 07:17:16 435.465 / 435.565
Cubesat XI-IV 08 Feb 07:05:47 07:11:13 87° 105° (ESE) 07:16:37 437.490
LilacSat-2 08 Feb 07:11:44 07:15:30 71° 286° (WNW) 07:19:16 437.200
PRISM 08 Feb 07:40:29 07:44:37 64° 258° (WSW) 07:48:47 437.425
GONETS M04 08 Feb 07:43:36 07:49:02 19° 73° (ENE) 07:54:29
DOVE 4 08 Feb 07:48:35 07:52:38 37° 96° (E) 07:56:31 437.250
SO-50 08 Feb 07:51:30 07:55:51 30° 326° (NW) 08:00:12 436.795
GOMX 1 08 Feb 07:57:41 08:02:18 88° 97° (E) 08:06:37 467.674
AO-7 08 Feb 08:01:01 08:04:57 14° 329° (NNW) 08:08:53 29.400- 29.500
COMPASS 1 08 Feb 08:08:24 08:11:04 16° 90° (E) 08:13:43 437.405
CUTE 1.7 + AOD 2 08 Feb 08:08:42 08:12:22 27° 94° (E) 08:16:02 437.475
SEEDS 08 Feb 08:18:28 08:22:04 26° 94° (E) 08:25:40 437.485
BRITE-PL 08 Feb 08:20:31 08:24:59 34° 295° (WNW) 08:29:07 437.365/2234.400
Cosmos 2499 08 Feb 08:25:41 08:30:16 15° 70° (ENE) 08:34:52 435.465 / 435.565
STRAND 1 08 Feb 08:26:10 08:28:22 13° 274° (W) 08:30:34 437.568
HO-68 08 Feb 08:27:23 08:34:19 47° 99° (E) 08:41:13 435.675
CUTE-I 08 Feb 08:33:36 08:37:39 22° 302° (WNW) 08:41:42 437.470
AAUSAT CUBESAT 2 08 Feb 08:38:15 08:41:48 26° 94° (E) 08:45:21 437.432
ANTELSAT 08 Feb 08:44:40 08:47:43 19° 61° (ENE) 08:50:45 437.575/2403.000
ZACube-1 08 Feb 08:45:06 08:46:05 11° 87° (E) 08:47:02 437.345
Cubesat XI-IV 08 Feb 08:47:05 08:50:37 18° 305° (NW) 08:54:11 437.490
TIGRISAT 08 Feb 08:51:58 08:55:12 21° 62° (ENE) 08:58:26 435.000
CANX-2 08 Feb 08:53:03 08:57:23 84° 107° (ESE) 09:01:40 2200.000
FUNcube-1 08 Feb 08:54:17 08:56:15 13° 88° (E) 08:58:13 145.935
CINEMA 3 08 Feb 08:56:35 09:00:46 67° 102° (ESE) 09:04:53 145.822/145.860
O/OREOS (USA 219) 08 Feb 08:58:12 09:02:40 76° 114° (ESE) 09:07:11 437.305
Cosmos 2504 08 Feb 09:01:59 09:05:12 12° 319° (NW) 09:08:27 435.465 / 435.565
NANOSAT C BR1 08 Feb 09:14:01 09:14:50 10° 55° (NE) 09:15:39 145.865
CUBEBUG 2 08 Feb 09:16:00 09:19:57 40° 98° (E) 09:23:56 437.445
DUCHIFAT 1 08 Feb 09:16:14 09:17:06 11° 55° (NE) 09:17:57 145.980
QB50P1 08 Feb 09:19:55 09:21:42 12° 57° (ENE) 09:23:28 145.935-145.965
UWE-3 08 Feb 09:20:45 09:24:33 33° 96° (E) 09:28:24 435.000/436.395/437.385
DOVE 4 08 Feb 09:26:39 09:30:13 25° 296° (WNW) 09:33:39 437.250
Oscar 11 08 Feb 09:28:36 09:32:41 37° 97° (E) 09:36:43 145.826/435.025
UNISAT 6 08 Feb 09:34:44 09:38:58 54° 71° (ENE) 09:43:09 437.425
SO-50 08 Feb 09:35:15 09:37:54 14° 350° (N) 09:40:33 436.795
GONETS M04 08 Feb 09:35:42 09:44:22 78° 96° (E) 09:53:07
GOMX 1 08 Feb 09:37:24 09:39:40 14° 305° (NW) 09:41:53 467.674
COMPASS 1 08 Feb 09:42:52 09:47:02 58° 287° (WNW) 09:51:11 437.405
CUTE 1.7 + AOD 2 08 Feb 09:44:23 09:48:17 35° 292° (WNW) 09:52:11 437.475
SEEDS 08 Feb 09:53:58 09:57:52 36° 292° (WNW) 10:01:45 437.485
DELFI C3 08 Feb 10:06:15 10:10:13 51° 100° (E) 10:14:10 145.870
POLYITAN 1 08 Feb 10:09:17 10:13:07 34° 67° (ENE) 10:16:57 437.675
QB50P2 08 Feb 10:09:59 10:13:51 35° 68° (ENE) 10:17:44 145.880/145.840
Cosmos 2499 08 Feb 10:13:01 10:21:36 64° 92° (E) 10:30:21 435.465 / 435.565
AAUSAT CUBESAT 2 08 Feb 10:13:33 10:17:23 35° 292° (WNW) 10:21:13 437.432
HO-68 08 Feb 10:15:18 10:22:00 44° 300° (WNW) 10:28:42 435.675
ZACube-1 08 Feb 10:18:46 10:22:59 87° 281° (W) 10:27:14 437.345
ANTELSAT 08 Feb 10:19:52 10:24:06 54° 260° (W) 10:28:19 437.575/2403.000
BUGSAT 1 08 Feb 10:22:37 10:26:02 25° 64° (ENE) 10:29:26 437.445
TIGRISAT 08 Feb 10:27:28 10:31:39 47° 261° (W) 10:35:48 435.000
FUNcube-1 08 Feb 10:28:50 10:33:00 72° 287° (WNW) 10:37:14 145.935
CANX-2 08 Feb 10:30:32 10:32:38 14° 302° (WNW) 10:34:45 2200.000
RS-15 08 Feb 10:30:38 10:38:06 21° 97° (E) 10:45:46 29.354- 29.394
CINEMA 3 08 Feb 10:35:01 10:37:27 15° 301° (WNW) 10:39:51 145.822/145.860
O/OREOS (USA 219) 08 Feb 10:39:28 10:42:38 18° 315° (NW) 10:45:50 437.305
POPSAT HIP 1 08 Feb 10:39:48 10:44:01 66° 73° (ENE) 10:48:14 437.405
50 SAT 08 Feb 10:41:35 10:43:17 13° 89° (E) 10:44:59 437.505
AISAT 08 Feb 10:43:05 10:45:06 13° 88° (E) 10:47:08 437.250
NANOSAT C BR1 08 Feb 10:45:37 10:49:51 74° 73° (ENE) 10:54:04 145.865
DUCHIFAT 1 08 Feb 10:47:51 10:52:04 75° 75° (ENE) 10:56:17 145.980
QB50P1 08 Feb 10:52:35 10:56:51 89° 76° (ENE) 11:01:07 145.935-145.965
HUMSAT D 08 Feb 10:52:47 10:56:56 69° 103° (ESE) 11:01:07 437.325/437.525
CUBEBUG 2 08 Feb 10:53:07 10:56:25 23° 296° (WNW) 10:59:45 437.445
Oscar 19 08 Feb 10:53:35 10:54:44 11° 49° (NE) 10:55:53 437.125/150
ESTCUBE 1 08 Feb 10:56:52 11:00:13 20° 91° (E) 11:03:33 437.505/2401.250
UWE-3 08 Feb 10:57:26 11:00:58 27° 294° (WNW) 11:04:33 435.000/436.395/437.385
UKube-1 08 Feb 11:04:56 11:07:57 18° 91° (E) 11:10:56 .
Oscar 11 08 Feb 11:05:02 11:08:40 27° 295° (WNW) 11:12:19 145.826/435.025
CUSAT 1 08 Feb 11:05:22 11:08:24 13° 45° (NE) 11:11:08 437.405
CUBEBUG 1 08 Feb 11:07:06 11:10:10 18° 91° (E) 11:13:11 437.445
AO-85 08 Feb 11:09:54 11:15:03 48° 120° (ESE) 11:20:21 145.980
AIST 1 08 Feb 11:12:43 11:17:06 72° 97° (E) 11:21:31
UNISAT 6 08 Feb 11:13:06 11:16:02 18° 269° (W) 11:18:56 437.425
DX 1 08 Feb 11:13:22 11:17:01 25° 94° (E) 11:20:38 434.975-435.025
SO-50 08 Feb 11:17:30 11:20:23 15° 14° (NNE) 11:23:16 436.795
DANDE 08 Feb 11:23:00 11:27:03 15° 44° (NE) 11:30:44 436.750
GONETS M04 08 Feb 11:34:55 11:42:12 29° 300° (WNW) 11:49:35
JAS-2 08 Feb 11:35:02 11:40:50 25° 56° (ENE) 11:46:13 435.910
AO-7 08 Feb 11:40:47 11:42:54 11° 25° (NNE) 11:45:00 29.400- 29.500
DELFI C3 08 Feb 11:41:59 11:44:49 18° 298° (WNW) 11:47:38 145.870
PCSat 08 Feb 11:43:02 11:48:20 59° 119° (ESE) 11:53:41 145.827
POLYITAN 1 08 Feb 11:45:22 11:48:59 27° 265° (W) 11:52:38 437.675
QB50P2 08 Feb 11:46:09 11:49:45 26° 266° (W) 11:53:21 145.880/145.840
ZACube-1 08 Feb 11:57:08 11:58:39 12° 303° (WNW) 12:00:10 437.345
BUGSAT 1 08 Feb 11:57:20 12:01:16 38° 262° (W) 12:05:12 437.445
VELOX 1 08 Feb 12:01:21 12:05:48 70° 103° (ESE) 12:10:12 145.980
HO-68 08 Feb 12:05:16 12:07:57 12° 322° (NW) 12:10:38 435.675
Cosmos 2499 08 Feb 12:07:20 12:15:18 37° 295° (WNW) 12:23:25 435.465 / 435.565
50 SAT 08 Feb 12:13:58 12:17:44 63° 287° (WNW) 12:21:29 437.505
AISAT 08 Feb 12:17:45 12:22:12 79° 286° (WNW) 12:26:35 437.250
POPSAT HIP 1 08 Feb 12:17:55 12:20:16 14° 271° (W) 12:22:37 437.405
YUBILEINY 08 Feb 12:20:37 12:25:40 16° 47° (NE) 12:30:41 435.215
NANOSAT C BR1 08 Feb 12:24:11 12:26:07 13° 272° (W) 12:28:04 145.865
DUCHIFAT 1 08 Feb 12:26:26 12:28:19 13° 272° (W) 12:30:12 145.980
Oscar 19 08 Feb 12:27:56 12:32:59 55° 70° (ENE) 12:38:03 437.125/150
HUMSAT D 08 Feb 12:29:42 12:32:06 15° 300° (WNW) 12:34:32 437.325/437.525
QB50P1 08 Feb 12:32:24 12:33:17 11° 273° (W) 12:34:09 145.935-145.965
ESTCUBE 1 08 Feb 12:32:55 12:37:22 54° 290° (WNW) 12:41:48 437.505/2401.250
RS-15 08 Feb 12:37:10 12:48:16 74° 122° (ESE) 13:00:02 29.354- 29.394
UKube-1 08 Feb 12:40:06 12:44:20 54° 290° (WNW) 12:48:33 .
CUBEBUG 1 08 Feb 12:42:30 12:46:49 54° 289° (WNW) 12:51:03 437.445
Gurwin Techsat 1B 08 Feb 12:45:56 12:50:41 34° 64° (ENE) 12:55:26 435.225
CUSAT 1 08 Feb 12:46:05 12:52:37 59° 72° (ENE) 12:57:33 437.405
DX 1 08 Feb 12:49:16 12:53:21 39° 293° (WNW) 12:57:23 434.975-435.025
AO-85 08 Feb 12:50:35 12:55:45 42° 321° (NW) 13:00:58 145.980
SPROUT 08 Feb 12:52:09 12:56:26 77° 102° (ESE) 13:00:41 437.525
AIST 1 08 Feb 12:52:45 12:55:16 15° 297° (WNW) 12:57:47
SO-50 08 Feb 12:57:45 13:02:17 36° 38° (NE) 13:06:42 436.795
DANDE 08 Feb 13:04:41 13:12:15 54° 69° (ENE) 13:18:09 436.750
TISAT 1 08 Feb 13:07:40 13:11:40 43° 99° (E) 13:15:39 437.305
JAS-2 08 Feb 13:17:32 13:25:14 86° 255° (WSW) 13:32:14 435.910
AO-7 08 Feb 13:26:02 13:33:04 32° 50° (NE) 13:40:06 29.400- 29.500
PCSat 08 Feb 13:27:13 13:32:04 32° 320° (NW) 13:36:58 145.827
ITAMSAT 1 08 Feb 13:33:13 13:38:10 47° 67° (ENE) 13:43:09 435.822/435.867
VELOX 1 08 Feb 13:38:58 13:41:48 17° 301° (WNW) 13:44:35 145.980
AISAT 08 Feb 13:56:18 13:57:57 12° 305° (NW) 13:59:36 437.250
SWISSCUBE 08 Feb 13:57:13 14:01:30 31° 95° (E) 14:05:46 437.505
Oscar 19 08 Feb 14:08:32 14:12:40 24° 268° (W) 14:16:48 437.125/150
Cosmos 2499 08 Feb 14:10:58 14:11:46 10° 322° (NW) 14:12:34 435.465 / 435.565
YUBILEINY 08 Feb 14:16:05 14:24:50 58° 73° (ENE) 14:33:30 435.215
Gurwin Techsat 1B 08 Feb 14:25:36 14:30:34 40° 263° (W) 14:35:35 435.225
Cosmos 2491 08 Feb 14:27:20 14:34:28 30° 80° (E) 14:41:36 435.465 / 435.565
CUSAT 1 08 Feb 14:29:18 14:34:09 24° 279° (W) 14:38:09 437.405
SPROUT 08 Feb 14:29:32 14:31:52 15° 302° (WNW) 14:34:12 437.525
ITUPSAT 1 08 Feb 14:32:55 14:37:42 59° 101° (E) 14:42:27 437.325
AO-85 08 Feb 14:33:59 14:37:42 18° 343° (NNW) 14:41:23 145.980
SO-50 08 Feb 14:38:17 14:42:55 46° 239° (WSW) 14:47:24 436.795
BEESAT 08 Feb 14:42:26 14:47:16 73° 103° (ESE) 14:52:03 436.000
TISAT 1 08 Feb 14:43:52 14:47:08 22° 297° (WNW) 14:50:22 437.305
DANDE 08 Feb 14:48:16 14:54:48 34° 276° (W) 15:00:07 436.750
RS-15 08 Feb 14:50:34 15:01:35 50° 330° (NNW) 15:13:14 29.354- 29.394
M-CUBED/EXP-1 PRIME 08 Feb 14:53:40 14:57:11 48° 66° (ENE) 15:00:29 437.505
Cosmos 2504 08 Feb 14:54:55 15:02:10 28° 59° (ENE) 15:09:04 435.465 / 435.565
AUBIESAT-1 08 Feb 15:04:52 15:08:23 54° 67° (ENE) 15:11:44 437.475
JAS-2 08 Feb 15:05:44 15:11:02 20° 273° (W) 15:16:03 435.910
KKS-1 08 Feb 15:11:03 15:14:35 23° 93° (E) 15:18:07 437.445
ITAMSAT 1 08 Feb 15:13:26 15:17:51 28° 266° (W) 15:22:19 435.822/435.867
PCSat 08 Feb 15:14:34 15:17:14 13° 345° (NNW) 15:19:53 145.827
AO-7 08 Feb 15:16:43 15:25:07 81° 252° (WSW) 15:33:33 29.400- 29.500
SWISSCUBE 08 Feb 15:34:56 15:39:22 37° 294° (WNW) 15:43:46 437.505
HORYU 2 08 Feb 15:39:37 15:43:59 64° 71° (ENE) 15:48:23 437.375
ITUPSAT 1 08 Feb 16:11:31 16:15:11 22° 300° (WNW) 16:18:49 437.325
YUBILEINY 08 Feb 16:13:24 16:21:17 38° 276° (W) 16:29:09 435.215
AO-85 08 Feb 16:17:06 16:20:19 16° 8° (N) 16:23:28 145.980
BRITE-PL 08 Feb 16:21:02 16:23:27 13° 53° (NE) 16:25:49 437.365/2234.400
BEESAT 08 Feb 16:21:19 16:24:33 18° 302° (WNW) 16:27:46 436.000
Cosmos 2491 08 Feb 16:21:51 16:30:33 72° 282° (WNW) 16:39:18 435.465 / 435.565
LilacSat-2 08 Feb 16:26:11 16:27:28 11° 59° (ENE) 16:28:45 437.200
MOZHAYETS 4 08 Feb 16:29:25 16:34:00 57° 101° (E) 16:38:34
M-CUBED/EXP-1 PRIME 08 Feb 16:30:04 16:32:04 14° 261° (W) 16:34:01 437.505
STARS 08 Feb 16:33:53 16:38:18 83° 105° (ESE) 16:42:40 437.465
CUTE-I 08 Feb 16:39:57 16:44:25 28° 61° (ENE) 16:48:55 437.470
AUBIESAT-1 08 Feb 16:41:34 16:43:15 13° 262° (W) 16:44:55 437.475
ISS 08 Feb 16:44:29 16:47:04 22° 142° (SE) 16:49:40 145.825
KKS-1 08 Feb 16:47:09 16:51:23 44° 292° (WNW) 16:55:34 437.445
Cosmos 2504 08 Feb 16:47:55 16:56:44 83° 263° (W) 17:04:57 435.465 / 435.565
Cubesat XI-IV 08 Feb 16:52:48 16:57:35 35° 64° (ENE) 17:02:24 437.490
PCSat 08 Feb 17:00:48 17:03:07 13° 12° (NNE) 17:05:28 145.827
RS-15 08 Feb 17:06:45 17:17:27 38° 3° (N) 17:28:34 29.354- 29.394
CUBESAT XI-V 08 Feb 17:06:55 17:10:06 18° 89° (E) 17:13:16 437.345
AO-7 08 Feb 17:13:29 17:19:11 20° 273° (W) 17:24:57 29.400- 29.500
HO-68 08 Feb 17:16:58 17:20:42 15° 42° (NE) 17:24:25 435.675
HORYU 2 08 Feb 17:18:17 17:21:00 16° 270° (W) 17:23:44 437.375
DOVE 4 08 Feb 17:23:44 17:25:13 11° 55° (NE) 17:26:41 437.250
O/OREOS (USA 219) 08 Feb 17:24:58 17:29:18 40° 56° (NE) 17:33:39 437.305
GOMX 1 08 Feb 17:32:10 17:36:22 24° 62° (ENE) 17:40:25 467.674
GONETS M04 08 Feb 17:45:54 17:49:46 13° 44° (NE) 17:53:37
BRITE-PL 08 Feb 17:55:20 18:00:56 62° 72° (ENE) 18:06:24 437.365/2234.400
LilacSat-2 08 Feb 17:57:24 18:01:14 82° 259° (WSW) 18:05:04 437.200
AO-85 08 Feb 17:57:54 18:02:34 29° 32° (NNE) 18:06:59 145.980
MOZHAYETS 4 08 Feb 18:07:22 18:10:49 21° 299° (WNW) 18:14:16
BEESAT 3 08 Feb 18:09:05 18:12:59 57° 124° (SE) 18:16:55 437.485
STARS 08 Feb 18:11:46 18:14:05 14° 303° (WNW) 18:16:23 437.465
CANX-2 08 Feb 18:16:29 18:18:31 13° 58° (ENE) 18:20:32 2200.000
CUTE-I 08 Feb 18:19:03 18:24:14 51° 260° (W) 18:29:27 437.470
ISS 08 Feb 18:19:59 18:23:14 88° 336° (NNW) 18:26:30 145.825
Cosmos 2491 08 Feb 18:23:19 18:29:14 20° 308° (NW) 18:35:12 435.465 / 435.565
CINEMA 3 08 Feb 18:27:21 18:29:47 14° 59° (ENE) 18:32:09 145.822/145.860
BEESAT 2 08 Feb 18:30:43 18:34:41 62° 125° (SE) 18:38:41 435.950
Cubesat XI-IV 08 Feb 18:32:37 18:37:36 40° 263° (W) 18:42:38 437.490
AIST 2 08 Feb 18:40:52 18:41:43 11° 109° (ESE) 18:42:34 435.215
Cosmos 2504 08 Feb 18:42:52 18:48:43 21° 286° (WNW) 18:54:23 435.465 / 435.565
CUBESAT XI-V 08 Feb 18:43:15 18:47:57 64° 288° (WNW) 18:52:35 437.345
PCSat 08 Feb 18:43:47 18:48:27 28° 37° (NE) 18:53:05 145.827
STRAND 1 08 Feb 18:50:05 18:54:19 25° 93° (E) 18:58:31 437.568
DOVE 4 08 Feb 18:57:05 19:02:07 65° 73° (ENE) 19:06:54 437.250
HO-68 08 Feb 18:59:59 19:06:54 54° 64° (ENE) 19:13:51 435.675
COMPASS 1 08 Feb 19:03:18 19:06:16 19° 62° (ENE) 19:09:15 437.405
O/OREOS (USA 219) 08 Feb 19:04:40 19:08:34 28° 255° (WSW) 19:12:28 437.305
CUTE 1.7 + AOD 2 08 Feb 19:05:16 19:09:01 32° 67° (ENE) 19:12:48 437.475
GOMX 1 08 Feb 19:08:45 19:14:06 61° 259° (W) 19:19:14 467.674
SEEDS 08 Feb 19:14:08 19:17:49 30° 66° (ENE) 19:21:31 437.485
PRISM 08 Feb 19:19:39 19:21:47 14° 89° (E) 19:23:52 437.425
RS-15 08 Feb 19:21:13 19:33:02 57° 36° (NE) 19:45:09 29.354- 29.394
AAUSAT CUBESAT 2 08 Feb 19:32:30 19:36:06 30° 66° (ENE) 19:39:44 437.432
BRITE-PL 08 Feb 19:35:11 19:39:45 24° 269° (W) 19:44:15 437.365/2234.400
AO-85 08 Feb 19:38:22 19:43:38 73° 235° (SW) 19:48:28 145.980
GONETS M04 08 Feb 19:40:49 19:49:19 49° 71° (ENE) 19:57:48
ZACube-1 08 Feb 19:44:20 19:46:49 16° 60° (ENE) 19:49:16 437.345
BEESAT 3 08 Feb 19:47:43 19:51:03 24° 324° (NW) 19:54:23 437.485
CANX-2 08 Feb 19:49:33 19:53:46 83° 254° (WSW) 19:58:02 2200.000
FUNcube-1 08 Feb 19:53:41 19:56:31 18° 61° (ENE) 19:59:20 145.935
ISS 08 Feb 19:56:41 19:59:53 51° 1° (N) 20:03:04 145.825
Cosmos 2499 08 Feb 20:00:05 20:07:33 32° 62° (ENE) 20:14:34 435.465 / 435.565
CINEMA 3 08 Feb 20:01:46 20:06:23 83° 254° (WSW) 20:10:51 145.822/145.860
BEESAT 2 08 Feb 20:09:38 20:12:56 24° 325° (NW) 20:16:14 435.950
AIST 2 08 Feb 20:15:19 20:19:29 79° 126° (SE) 20:23:41 435.215
HUMSAT D 08 Feb 20:16:13 20:17:04 11° 56° (NE) 20:17:55 437.325/437.525
CUBEBUG 2 08 Feb 20:17:53 20:22:06 56° 72° (ENE) 20:26:16 437.445
UWE-3 08 Feb 20:21:35 20:25:39 45° 70° (ENE) 20:29:39 435.000/436.395/437.385
CUBESAT XI-V 08 Feb 20:23:24 20:24:25 11° 307° (NW) 20:25:26 437.345
PCSat 08 Feb 20:26:57 20:32:24 74° 239° (WSW) 20:37:48 145.827
Oscar 11 08 Feb 20:27:04 20:31:12 47° 70° (ENE) 20:35:21 145.826/435.025
STRAND 1 08 Feb 20:28:46 20:33:47 52° 291° (WNW) 20:38:47 437.568
DOVE 4 08 Feb 20:36:37 20:40:11 19° 270° (W) 20:43:39 437.250
COMPASS 1 08 Feb 20:37:29 20:41:31 51° 261° (W) 20:45:37 437.405
CUTE 1.7 + AOD 2 08 Feb 20:41:14 20:44:53 29° 265° (W) 20:48:35 437.475
HO-68 08 Feb 20:48:19 20:54:51 37° 264° (W) 21:01:29 435.675
SEEDS 08 Feb 20:49:50 20:53:31 30° 265° (W) 20:57:15 437.485
PRISM 08 Feb 20:53:25 20:57:36 70° 287° (WNW) 21:01:45 437.425
DELFI C3 08 Feb 20:56:18 21:00:10 52° 71° (ENE) 21:04:04 145.870
AAUSAT CUBESAT 2 08 Feb 21:07:55 21:11:34 30° 265° (W) 21:15:17 437.432
AIST 1 08 Feb 21:15:53 21:19:40 28° 70° (ENE) 21:23:24
ZACube-1 08 Feb 21:18:28 21:22:40 67° 258° (WSW) 21:26:49 437.345
AO-85 08 Feb 21:21:12 21:23:09 12° 255° (WSW) 21:25:02 145.980
50 SAT 08 Feb 21:26:26 21:28:03 13° 59° (ENE) 21:29:42 437.505
FUNcube-1 08 Feb 21:28:18 21:32:25 55° 260° (W) 21:36:31 145.935
VELOX 1 08 Feb 21:28:26 21:30:57 15° 57° (ENE) 21:33:30 145.980
ISS 08 Feb 21:33:15 21:36:30 90° 221° (SW) 21:39:46 145.825
RS-15 08 Feb 21:34:07 21:45:58 64° 242° (WSW) 21:58:01 29.354- 29.394
GONETS M04 08 Feb 21:37:56 21:46:07 46° 273° (W) 21:54:20
CINEMA 3 08 Feb 21:43:21 21:44:12 10° 274° (W) 21:45:01 145.822/145.860
AISAT 08 Feb 21:43:54 21:47:14 21° 61° (ENE) 21:50:34 437.250
HUMSAT D 08 Feb 21:47:56 21:52:01 80° 74° (ENE) 21:56:07 437.325/437.525
Cosmos 2499 08 Feb 21:53:00 22:01:32 71° 266° (W) 22:09:23 435.465 / 435.565
AIST 2 08 Feb 21:55:13 21:58:28 21° 327° (NNW) 22:01:44 435.215
CUBEBUG 2 08 Feb 21:56:17 21:59:06 17° 270° (W) 22:01:52 437.445
UWE-3 08 Feb 21:59:11 22:02:21 20° 268° (W) 22:05:30 435.000/436.395/437.385
ESTCUBE 1 08 Feb 22:00:06 22:04:02 30° 65° (ENE) 22:08:00 437.505/2401.250
UKube-1 08 Feb 22:03:10 22:06:48 27° 64° (ENE) 22:10:28 .
Oscar 11 08 Feb 22:04:24 22:07:36 20° 269° (W) 22:10:49 145.826/435.025
CUBEBUG 1 08 Feb 22:06:43 22:10:25 26° 64° (ENE) 22:14:07 437.445
ANTELSAT 08 Feb 22:07:41 22:11:05 22° 93° (E) 22:14:31 437.575/2403.000
STRAND 1 08 Feb 22:11:23 22:11:51 10° 311° (NW) 22:12:19 437.568
DX 1 08 Feb 22:12:31 22:16:33 37° 67° (ENE) 22:20:37 434.975-435.025
PCSat 08 Feb 22:12:35 22:14:51 13° 258° (WSW) 22:17:07 145.827
TIGRISAT 08 Feb 22:14:54 22:18:27 25° 94° (E) 22:22:02 435.000
SPROUT 08 Feb 22:16:20 22:18:28 14° 57° (ENE) 22:20:35 437.525
DELFI C3 08 Feb 22:32:52 22:35:24 16° 270° (W) 22:37:58 145.870
QB50P1 08 Feb 22:35:46 22:36:52 11° 87° (E) 22:37:58 145.935-145.965
AIST 1 08 Feb 22:53:23 22:57:19 33° 269° (W) 23:01:11
50 SAT 08 Feb 22:57:54 23:01:35 70° 258° (WSW) 23:05:20 437.505
UNISAT 6 08 Feb 22:58:38 23:02:57 69° 102° (ESE) 23:07:19 437.425
VELOX 1 08 Feb 23:02:23 23:06:52 81° 256° (WSW) 23:11:22 145.980
ISS 08 Feb 23:10:07 23:12:38 21° 219° (SW) 23:15:11 145.825
AISAT 08 Feb 23:19:00 23:23:23 54° 259° (W) 23:27:48 437.250
POLYITAN 1 08 Feb 23:25:41 23:29:33 35° 97° (E) 23:33:24 437.675
QB50P2 08 Feb 23:26:22 23:30:17 36° 97° (E) 23:34:12 145.880/145.840
HUMSAT D 08 Feb 23:27:03 23:28:14 11° 273° (W) 23:29:25 437.325/437.525
BUGSAT 1 08 Feb 23:35:28 23:38:39 22° 93° (E) 23:41:48 437.445
ESTCUBE 1 08 Feb 23:36:36 23:40:46 36° 263° (W) 23:44:59 437.505/2401.250
UKube-1 08 Feb 23:38:42 23:42:44 37° 262° (W) 23:46:48 .
CUBEBUG 1 08 Feb 23:42:22 23:46:33 40° 262° (W) 23:50:45 437.445
ANTELSAT 08 Feb 23:43:55 23:48:02 44° 290° (WNW) 23:52:10 437.575/2403.000
Cosmos 2499 08 Feb 23:48:16 23:52:56 16° 289° (WNW) 23:57:27 435.465 / 435.565
RS-15 08 Feb 23:49:02 23:55:53 17° 266° (W) 00:02:49 29.354- 29.394
DX 1 08 Feb 23:49:07 23:52:51 27° 265° (W) 23:56:35 434.975-435.025
SPROUT 08 Feb 23:49:31 23:53:51 85° 259° (WSW) 23:58:10 437.525
TIGRISAT 08 Feb 23:51:17 23:55:17 39° 292° (WNW) 23:59:21 435.000
POPSAT HIP 1 08 Feb 23:56:16 00:00:29 70° 102° (ESE) 00:04:40 437.405
NANOSAT C BR1 09 Feb 00:01:43 00:05:55 78° 102° (ESE) 00:10:07 145.865
TISAT 1 09 Feb 00:03:02 00:07:10 55° 71° (ENE) 00:11:19 437.305
DUCHIFAT 1 09 Feb 00:03:39 00:07:52 79° 105° (ESE) 00:12:03 145.980
ITUPSAT 1 09 Feb 00:08:02 00:11:06 17° 57° (ENE) 00:14:10 437.325
QB50P1 09 Feb 00:09:03 00:13:17 86° 283° (WNW) 00:17:29 145.935-145.965
CUSAT 1 09 Feb 00:14:15 00:17:46 14° 74° (ENE) 00:21:16 437.405
BEESAT 09 Feb 00:16:46 00:20:13 20° 59° (ENE) 00:23:40 436.000
Cosmos 2491 09 Feb 00:31:06 00:37:07 20° 52° (NE) 00:43:08 435.465 / 435.565
UNISAT 6 09 Feb 00:36:34 00:39:13 16° 301° (WNW) 00:41:53 437.425
Oscar 19 09 Feb 00:36:52 00:39:30 14° 87° (E) 00:42:06 437.125/150
DANDE 09 Feb 00:38:41 00:41:46 13° 71° (ENE) 00:44:54 436.750
VELOX 1 09 Feb 00:43:46 00:44:05 10° 274° (W) 00:44:24 145.980
BEESAT 3 09 Feb 00:45:46 00:49:01 23° 35° (NE) 00:52:13 437.485
POLYITAN 1 09 Feb 01:01:44 01:05:16 27° 295° (WNW) 01:08:49 437.675
QB50P2 09 Feb 01:02:29 01:05:59 26° 296° (WNW) 01:09:29 145.880/145.840
SWISSCUBE 09 Feb 01:07:26 01:12:05 56° 70° (ENE) 01:16:48 437.505
BEESAT 2 09 Feb 01:07:59 01:11:20 25° 36° (NE) 01:14:39 435.950
BUGSAT 1 09 Feb 01:10:25 01:14:13 39° 291° (WNW) 01:17:57 437.445
AIST 2 09 Feb 01:17:34 01:18:56 11° 16° (NNE) 01:20:17 435.215
YUBILEINY 09 Feb 01:32:26 01:35:37 12° 68° (ENE) 01:38:47 435.215
POPSAT HIP 1 09 Feb 01:33:21 01:35:47 15° 301° (WNW) 01:38:14 437.405
NANOSAT C BR1 09 Feb 01:38:57 01:41:08 14° 302° (WNW) 01:43:18 145.865
TISAT 1 09 Feb 01:40:23 01:43:12 17° 269° (W) 01:46:01 437.305
DUCHIFAT 1 09 Feb 01:40:53 01:43:02 14° 302° (WNW) 01:45:10 145.980
ITUPSAT 1 09 Feb 01:43:35 01:48:21 78° 255° (WSW) 01:53:12 437.325
ITAMSAT 1 09 Feb 01:43:59 01:45:48 12° 85° (E) 01:47:36 435.822/435.867
QB50P1 09 Feb 01:46:51 01:48:24 12° 304° (WNW) 01:49:56 145.935-145.965
CUSAT 1 09 Feb 01:50:45 01:58:32 57° 93° (E) 02:06:16 437.405
BEESAT 09 Feb 01:52:52 01:57:35 64° 258° (WSW) 02:02:21 436.000
STARS 09 Feb 01:59:58 02:02:49 17° 59° (ENE) 02:05:39 437.465
MOZHAYETS 4 09 Feb 02:01:03 02:03:10 13° 56° (NE) 02:05:18
JAS-2 09 Feb 02:08:49 02:14:37 58° 100° (E) 02:19:52 435.910
KKS-1 09 Feb 02:12:45 02:16:48 35° 66° (ENE) 02:20:53 437.445
Oscar 19 09 Feb 02:14:23 02:19:34 90° 291° (WNW) 02:24:42 437.125/150
DANDE 09 Feb 02:15:16 02:22:49 53° 91° (E) 02:30:59 436.750
BEESAT 3 09 Feb 02:23:11 02:27:07 62° 235° (SW) 02:31:00 437.485
Cosmos 2491 09 Feb 02:27:01 02:35:47 73° 78° (ENE) 02:44:33 435.465 / 435.565
Gurwin Techsat 1B 09 Feb 02:37:03 02:42:20 60° 101° (E) 02:47:35 435.225
BEESAT 2 09 Feb 02:45:35 02:49:32 57° 236° (SW) 02:53:25 435.950
SWISSCUBE 09 Feb 02:46:43 02:50:15 20° 269° (W) 02:53:50 437.505
AIST 2 09 Feb 02:54:59 02:58:43 31° 39° (NE) 03:02:24 435.215
AO-7 09 Feb 03:14:20 03:21:10 27° 92° (E) 03:27:55 29.400- 29.500
PHONESAT 2.4 09 Feb 03:18:40 03:20:54 17° 173° (S) 03:23:09 2401.200-2431.200
ITAMSAT 1 09 Feb 03:20:53 03:26:10 76° 104° (ESE) 03:31:24 435.822/435.867
YUBILEINY 09 Feb 03:21:49 03:30:19 57° 91° (E) 03:38:54 435.215
ITUPSAT 1 09 Feb 03:26:01 03:27:02 11° 275° (W) 03:28:03 437.325
CUSAT 1 09 Feb 03:33:32 03:41:06 42° 293° (WNW) 03:48:33 437.405
STARS 09 Feb 03:34:19 03:38:43 68° 257° (WSW) 03:43:07 437.465
MOZHAYETS 4 09 Feb 03:35:04 03:39:38 84° 74° (ENE) 03:44:15
Cosmos 2504 09 Feb 03:40:35 03:46:05 19° 73° (ENE) 03:51:41 435.465 / 435.565
KKS-1 09 Feb 03:49:32 03:53:26 29° 265° (W) 03:57:21 437.445
JAS-2 09 Feb 03:54:31 03:59:17 26° 303° (WNW) 04:03:42 435.910
Oscar 19 09 Feb 03:55:04 03:58:12 16° 305° (NW) 04:01:18 437.125/150
DANDE 09 Feb 03:58:21 04:05:59 46° 293° (WNW) 04:14:07 436.750
M-CUBED/EXP-1 PRIME 09 Feb 04:04:16 04:06:27 16° 99° (E) 04:08:40 437.505
CUBESAT XI-V 09 Feb 04:13:52 04:17:50 28° 64° (ENE) 04:21:49 437.345
AUBIESAT-1 09 Feb 04:14:45 04:17:10 18° 100° (E) 04:19:38 437.475
Gurwin Techsat 1B 09 Feb 04:17:41 04:21:55 25° 301° (WNW) 04:26:09 435.225
Cosmos 2491 09 Feb 04:24:43 04:31:52 30° 280° (W) 04:39:02 435.465 / 435.565
AIST 2 09 Feb 04:33:24 04:37:21 43° 239° (WSW) 04:41:14 435.215
STRAND 1 09 Feb 04:36:15 04:36:36 10° 49° (NE) 04:36:57 437.568
